{"data":{"norad_id":58671,"intl_designator":"2023-211E","name":"STARLINK-30828","alt_names":[],"object_type":"PAYLOAD","status":"ACTIVE","operator":null,"country":"US","launch_date":"2023-12-29","launch_site_code":"AFETR","launch_vehicle":null,"mission":null,"orbit_class":"UNKNOWN","rcs_meters":null,"size_class":null,"mass_kg":null,"dimensions":null,"purposes":["comms"],"wikipedia_slug":null,"has_3d_model":false,"image_url":null,"decayed_at":null,"tle_current":{"epoch":"2026-05-24T23:50:31.324704Z","epoch_age_seconds":72751,"freshness":"FRESH","line1":"1 58671U 23211E   26144.99341811  .00000379  00000+0  23292-4 0  9999","line2":"2 58671  43.0015  14.4118 0001235 276.0063  84.0648 15.27574951134134","mean_motion":15.27574951,"eccentricity":0.0001235,"inclination_deg":43.0015,"raan_deg":14.4118,"arg_perigee_deg":276.0063,"mean_anomaly_deg":84.0648,"bstar":2.3292e-5,"rev_number":13413,"period_min":94.267060287767,"perigee_km":482.21685625366,"apogee_km":483.91157295367,"semimajor_km":6861.2012146037,"source":"CELESTRAK","updated_at":"2026-05-25T13:38:18.710576Z"}}}